{"data":{"norad_id":45696,"intl_designator":"2020-035AR","name":"STARLINK-1422","alt_names":[],"object_type":"PAYLOAD","status":"ACTIVE","operator":null,"country":"US","launch_date":"2020-06-04","launch_site_code":"AFETR","launch_vehicle":null,"mission":null,"orbit_class":"UNKNOWN","rcs_meters":null,"size_class":null,"mass_kg":null,"dimensions":null,"purposes":["comms"],"wikipedia_slug":null,"has_3d_model":false,"image_url":null,"decayed_at":null,"tle_current":{"epoch":"2026-09-20T03:52:01.371072Z","epoch_age_seconds":47524,"freshness":"FRESH","line1":"1 45696U 20035AR  26263.16112698  .00046785  00000+0  94424-3 0  9998","line2":"2 45696  53.1510 217.0810 0005841  61.2190 298.9404 15.46064648348873","mean_motion":15.46064648,"eccentricity":0.0005841,"inclination_deg":53.151,"raan_deg":217.081,"arg_perigee_deg":61.219,"mean_anomaly_deg":298.9404,"bstar":0.00094424,"rev_number":34887,"period_min":93.139701620032,"perigee_km":424.27599840467,"apogee_km":432.22722157886,"semimajor_km":6806.3886099918,"source":"CELESTRAK","updated_at":"2026-09-20T09:00:38.453505Z"}}}